Location: Horowhenua
(40.7500°S, 175.3333°E)
Time: 14:45:32
(UTC+00:00)

SL-24 DEB - Pass Details

Date: 24 September 2023
Orbit: 654 x 688 km, 92.0° (Epoch: 01 December)

Event Time Altitude Azimuth Distance (km) Brightness Sun altitude
Rises 15:03:04 0° 163° (SSE) 3,020 8.3 -33.2°
Reaches altitude 10° 15:05:39 10° 150° (SSE) 2,102 7.5 -32.8°
Maximum altitude 15:09:32 26° 93° (E) 1,306 6.1 -32.2°
Enters shadow 15:10:16 25° 77° (ENE) 1,344 6.1 -32.1°
